EW3012 Weather Reports


Display with metric or nautical units.
time (UTC)temp
F
wind
direction
speed
MPH
gust
MPH
rain 1hr
in
rain 24hr
in
rain mn
in
humidity
%
barometer
mb
20181114212114 41 265 0.0 0.0 0.01 0.05 0.04 95 1024.7
20181114211613 42 265 0.0 0.0 0.01 0.05 0.04 95 1024.7
20181114211103 42 266 0.0 0.0 0.01 0.05 0.04 95 1024.8
20181114210554 42 266 0.0 0.0 0.01 0.05 0.04 95 1024.9
20181114210044 42 305 0.0 0.0 0.02 0.05 0.04 95 1025.0
20181114205534 42 321 0.0 0.0 0.02 0.05 0.04 95 1025.0
20181114205020 42 287 0.0 0.0 0.02 0.05 0.04 95 1025.1
20181114204510 43 287 0.0 0.0 0.02 0.05 0.04 95 1025.2
20181114204009 43 284 0.0 0.0 0.02 0.04 0.04 95 1025.2
20181114203508 43 246 0.0 0.0 0.02 0.04 0.03 95 1025.3
20181114203007 43 246 0.0 0.0 0.02 0.04 0.03 95 1025.3
20181114202507 43 246 0.0 0.0 0.02 0.04 0.03 95 1025.3
20181114201951 43 246 0.0 0.0 0.02 0.04 0.03 95 1025.3
20181114201442 43 246 0.0 0.0 0.02 0.04 0.03 95 1025.3
20181114200932 43 228 0.0 1.0 0.02 0.04 0.03 95 1025.5
20181114200422 43 43 0.0 1.0 0.02 0.04 0.03 95 1025.5
20181114195911 43 63 0.0 1.0 0.02 0.04 0.02 95 1025.5
20181114195401 43 64 0.0 0.0 0.02 0.04 0.02 95 1025.5
20181114194853 43 29 0.0 0.0 0.02 0.04 0.02 95 1025.6
20181114194341 43 217 0.0 1.0 0.01 0.03 0.02 95 1025.6
20181114193834 43 105 0.0 0.0 0.01 0.03 0.02 95 1025.6
20181114193322 43 104 0.0 0.0 0.00 0.02 0.01 95 1025.7
20181114192812 43 104 0.0 0.0 0.00 0.02 0.01 95 1025.7
20181114192309 43 105 0.0 1.0 0.00 0.02 0.01 95 1025.7
20181114191811 43 105 0.0 1.0 0.00 0.02 0.01 95 1025.6
20181114191259 43 105 0.0 0.0 0.00 0.02 0.01 95 1025.5
20181114190240 43 273 0.0 0.0 0.00 0.02 0.01 95 1025.7
20181114185730 43 271 0.0 0.0 0.00 0.02 0.01 95 1025.6
20181114185220 43 271 0.0 0.0 0.00 0.02 0.01 95 1025.6
20181114184709 43 285 0.0 0.0 0.00 0.03 0.01 95 1025.5
20181114184200 43 288 0.0 0.0 0.00 0.03 0.01 95 1025.5
20181114183649 43 287 0.0 0.0 0.00 0.03 0.01 95 1025.5
20181114183139 43 288 0.0 0.0 0.00 0.03 0.01 95 1025.6
20181114182629 43 286 0.0 0.0 0.00 0.03 0.01 95 1025.6
20181114182120 43 286 0.0 0.0 0.00 0.03 0.01 95 1025.5
20181114181608 43 286 0.0 0.0 0.00 0.03 0.01 95 1025.5
20181114181107 43 287 0.0 0.0 0.00 0.03 0.01 95 1025.6
20181114180558 43 286 0.0 0.0 0.00 0.03 0.01 95 1025.6
20181114180046 43 287 0.0 0.0 0.00 0.03 0.01 95 1025.6
20181114175531 43 287 0.0 0.0 0.00 0.03 0.01 95 1025.6
20181114175025 43 287 0.0 0.0 0.00 0.03 0.01 95 1025.5
20181114174511 43 287 0.0 0.0 0.00 0.03 0.01 95 1025.5
20181114174013 43 287 0.0 0.0 0.00 0.03 0.01 95 1025.6
20181114173452 43 286 0.0 0.0 0.00 0.03 0.01 95 1025.6
20181114172942 43 287 0.0 0.0 0.00 0.04 0.01 95 1025.6
20181114172431 43 286 0.0 0.0 0.00 0.04 0.01 95 1025.6
20181114171923 43 286 0.0 0.0 0.00 0.04 0.01 95 1025.5
20181114171412 43 286 0.0 0.0 0.00 0.04 0.01 95 1025.6
20181114170903 43 287 0.0 0.0 0.00 0.04 0.01 94 1025.5
20181114170351 43 344 0.0 0.0 0.00 0.04 0.01 94 1025.6
20181114165844 43 347 0.0 0.0 0.00 0.04 0.01 94 1025.5
20181114165332 43 270 0.0 0.0 0.00 0.04 0.01 94 1025.6
20181114164821 43 270 0.0 0.0 0.00 0.04 0.01 94 1025.6
20181114164317 43 270 0.0 0.0 0.00 0.04 0.01 94 1025.6
20181114163807 43 273 0.0 0.0 0.00 0.05 0.01 94 1025.7
20181114163257 43 273 0.0 0.0 0.00 0.05 0.01 94 1025.6
20181114162748 43 269 0.0 0.0 0.00 0.05 0.01 94 1025.6
20181114162229 43 269 0.0 0.0 0.00 0.05 0.01 94 1025.7
20181114161719 43 54 0.0 0.0 0.00 0.05 0.01 94 1025.5
20181114161210 43 54 0.0 0.0 0.00 0.05 0.01 94 1025.5
20181114160659 43 54 0.0 0.0 0.00 0.05 0.01 94 1025.5
20181114160150 43 54 0.0 0.0 0.00 0.05 0.01 94 1025.6
20181114155639 43 54 0.0 0.0 0.00 0.05 0.01 94 1025.6
20181114155129 43 54 0.0 0.0 0.00 0.05 0.01 94 1025.5
20181114154620 43 54 0.0 0.0 0.00 0.05 0.01 94 1025.6
20181114154101 43 54 0.0 0.0 0.00 0.05 0.01 94 1025.6
20181114153552 43 53 0.0 0.0 0.00 0.05 0.01 94 1025.6
20181114153041 43 54 0.0 0.0 0.00 0.05 0.01 94 1025.5
20181114152532 43 54 0.0 0.0 0.00 0.05 0.01 94 1025.3
20181114152020 43 54 0.0 0.0 0.00 0.05 0.01 94 1025.6
20181114151511 43 54 0.0 0.0 0.00 0.05 0.01 94 1025.3
20181114151001 43 70 0.0 0.0 0.00 0.05 0.01 94 1025.3
20181114150452 43 70 0.0 1.0 0.00 0.05 0.01 94 1025.3
20181114145941 43 101 0.0 1.0 0.00 0.05 0.01 94 1025.3
20181114145431 43 103 0.0 0.0 0.00 0.05 0.01 94 1025.3
20181114144921 43 88 0.0 0.0 0.00 0.05 0.01 94 1025.2
20181114144411 43 131 0.0 1.0 0.00 0.05 0.01 94 1025.1
20181114143902 43 65 0.0 0.0 0.00 0.05 0.01 94 1025.2
20181114143351 43 65 0.0 0.0 0.00 0.05 0.01 94 1025.2
20181114142841 44 117 0.0 0.0 0.00 0.05 0.01 94 1025.2
20181114142332 44 94 0.0 1.0 0.00 0.05 0.01 94 1025.2
20181114141822 44 94 0.0 1.0 0.00 0.05 0.01 94 1025.2
20181114141311 44 95 0.0 1.0 0.00 0.05 0.01 94 1025.1
20181114140802 44 95 0.0 1.0 0.00 0.05 0.01 94 1025.1
20181114140243 44 131 0.0 1.0 0.00 0.05 0.01 94 1025.1
20181114135733 44 113 0.0 0.0 0.00 0.05 0.01 94 1025.0
20181114135223 44 73 0.0 0.0 0.00 0.05 0.01 94 1025.0
20181114134714 44 135 0.0 0.0 0.00 0.05 0.01 94 1025.1
20181114134203 44 82 0.0 0.0 0.00 0.05 0.01 94 1025.2
20181114133653 44 135 0.0 0.0 0.00 0.05 0.01 94 1025.1
20181114133144 44 136 0.0 0.0 0.00 0.05 0.01 94 1025.0
20181114132633 44 135 0.0 1.0 0.00 0.05 0.01 94 1025.0
20181114132124 44 139 0.0 1.0 0.00 0.05 0.01 94 1025.0
20181114131611 44 139 0.0 1.0 0.00 0.05 0.01 94 1025.1
20181114131104 44 46 0.0 1.0 0.00 0.05 0.01 94 1025.0
20181114130607 44 94 0.0 1.0 0.00 0.05 0.01 94 1024.9
20181114130056 44 53 0.0 1.0 0.00 0.05 0.01 94 1025.0
20181114125545 44 94 0.0 1.0 0.00 0.05 0.01 94 1025.0
20181114125035 44 128 0.0 1.0 0.00 0.05 0.01 94 1025.0
20181114124525 44 184 0.0 1.0 0.00 0.05 0.01 94 1025.1
20181114124015 44 131 0.0 1.0 0.00 0.05 0.01 94 1025.1
20181114123507 44 131 0.0 1.0 0.00 0.05 0.01 94 1025.1
20181114122953 44 139 0.0 1.0 0.00 0.05 0.01 94 1025.2
20181114122444 44 118 0.0 1.0 0.00 0.05 0.01 94 1025.2
20181114121933 44 135 0.0 1.0 0.00 0.05 0.01 94 1025.2
20181114121423 44 139 0.0 1.0 0.00 0.05 0.01 94 1025.2
20181114120913 44 33 0.0 1.0 0.00 0.05 0.01 94 1025.2
20181114120404 44 105 0.0 1.0 0.00 0.05 0.01 94 1025.3
20181114115853 44 113 0.0 1.0 0.00 0.05 0.01 95 1025.5
20181114115343 44 133 0.0 1.0 0.00 0.05 0.01 95 1025.3
20181114114834 44 120 0.0 1.0 0.00 0.05 0.01 95 1025.3
20181114114323 44 139 0.0 0.0 0.00 0.05 0.01 95 1025.2
20181114113813 44 100 0.0 0.0 0.00 0.05 0.01 95 1025.3
20181114113303 44 160 0.0 0.0 0.00 0.05 0.01 95 1025.5
20181114112754 44 118 0.0 1.0 0.00 0.05 0.01 95 1025.5
20181114112243 44 122 0.0 1.0 0.00 0.05 0.01 95 1025.5
20181114111733 44 134 0.0 0.0 0.00 0.05 0.01 95 1025.6
20181114111224 44 94 0.0 0.0 0.00 0.05 0.01 95 1025.5
20181114110713 44 148 0.0 1.0 0.00 0.05 0.01 95 1025.5
20181114110204 44 138 0.0 1.0 0.00 0.05 0.01 95 1025.6
20181114105653 44 225 0.0 0.0 0.00 0.06 0.01 95 1025.6
20181114105143 44 225 0.0 0.0 0.00 0.06 0.01 95 1025.7
20181114104633 44 230 0.0 1.0 0.00 0.06 0.01 95 1025.7
20181114104123 44 141 0.0 0.0 0.00 0.06 0.01 95 1025.7
20181114103617 44 141 0.0 0.0 0.00 0.06 0.01 95 1025.7
20181114103055 44 141 0.0 1.0 0.00 0.06 0.01 95 1025.7
20181114102541 44 131 0.0 1.0 0.00 0.06 0.01 95 1025.7
20181114102031 44 138 0.0 1.0 0.00 0.06 0.01 95 1025.7
20181114101522 44 139 0.0 1.0 0.00 0.06 0.01 95 1025.7
20181114101012 44 139 0.0 1.0 0.00 0.06 0.01 95 1025.8
20181114100501 43 148 0.0 1.0 0.00 0.06 0.01 95 1025.8
20181114095952 43 88 0.0 1.0 0.00 0.06 0.01 95 1025.9
20181114095443 43 90 0.0 0.0 0.00 0.06 0.01 95 1025.8
20181114094931 44 245 0.0 1.0 0.00 0.06 0.01 95 1025.9
20181114094417 43 318 0.0 0.0 0.00 0.06 0.01 95 1026.0
20181114093907 43 231 0.0 0.0 0.00 0.06 0.01 95 1026.1
20181114093356 43 167 0.0 0.0 0.00 0.06 0.01 95 1026.1
20181114092848 43 132 0.0 0.0 0.00 0.06 0.01 95 1026.0
20181114092337 43 225 0.0 0.0 0.00 0.06 0.01 95 1026.1
20181114091835 43 228 0.0 0.0 0.00 0.06 0.01 95 1026.2
20181114091317 42 131 0.0 1.0 0.00 0.06 0.01 95 1026.3
20181114090808 42 131 0.0 1.0 0.00 0.06 0.01 95 1026.3
20181114090257 42 145 0.0 1.0 0.00 0.06 0.01 95 1026.3
20181114085747 42 232 0.0 0.0 0.00 0.06 0.01 95 1026.4
20181114085232 42 128 0.0 0.0 0.00 0.06 0.01 95 1026.4
20181114084733 41 129 0.0 0.0 0.00 0.06 0.01 95 1026.5
20181114084211 41 127 0.0 0.0 0.00 0.06 0.01 95 1026.5
20181114083712 41 127 0.0 0.0 0.00 0.06 0.01 95 1026.5
20181114083151 41 130 0.0 0.0 0.00 0.07 0.01 95 1026.5
20181114082653 41 124 0.0 0.0 0.00 0.07 0.01 95 1026.6
20181114082134 41 124 0.0 0.0 0.00 0.07 0.01 95 1026.5
20181114081634 41 124 0.0 0.0 0.00 0.07 0.01 95 1026.7
20181114081111 40 124 0.0 0.0 0.00 0.07 0.01 95 1026.7
20181114080618 40 124 0.0 0.0 0.00 0.07 0.01 95 1026.7
20181114080052 40 124 0.0 0.0 0.00 0.07 0.01 95 1026.8
20181114075553 40 125 0.0 0.0 0.00 0.07 0.01 95 1026.8
20181114075030 40 122 0.0 1.0 0.00 0.07 0.01 95 1026.7
20181114074533 40 127 0.0 1.0 0.00 0.08 0.01 95 1026.7
20181114074011 40 142 0.0 1.0 0.00 0.08 0.01 95 1026.7
20181114073501 40 146 0.0 1.0 0.00 0.08 0.01 95 1026.7
20181114072952 40 143 0.0 1.0 0.00 0.08 0.01 95 1026.7
20181114072438 40 122 0.0 1.0 0.00 0.08 0.01 95 1026.7
20181114071930 40 115 0.0 0.0 0.00 0.08 0.01 95 1026.7
20181114071411 40 93 0.0 0.0 0.00 0.08 0.01 95 1026.7
20181114070901 40 68 0.0 0.0 0.00 0.08 0.01 95 1026.8
20181114070351 40 65 0.0 1.0 0.00 0.08 0.01 95 1026.8
20181114065841 40 24 0.0 1.0 0.00 0.08 0.01 95 1026.8
20181114065331 40 25 0.0 1.0 0.00 0.08 0.01 95 1026.9
20181114064822 40 24 0.0 1.0 0.00 0.08 0.01 95 1026.8
20181114064311 40 145 0.0 0.0 0.00 0.08 0.01 95 1027.0
20181114063759 40 191 0.0 1.0 0.00 0.08 0.01 95 1026.9
20181114063249 40 127 0.0 0.0 0.00 0.08 0.01 95 1026.9
20181114062739 40 87 0.0 0.0 0.00 0.08 0.01 95 1026.9
20181114062229 40 95 0.0 1.0 0.00 0.08 0.01 95 1026.9
20181114061718 40 67 0.0 1.0 0.00 0.09 0.01 95 1026.9
20181114061207 40 77 0.0 0.0 0.00 0.09 0.01 95 1027.0
20181114060657 40 84 0.0 0.0 0.00 0.09 0.01 95 1027.0
20181114060149 39 84 0.0 0.0 0.00 0.09 0.01 95 1027.0
20181114055635 39 84 0.0 0.0 0.00 0.09 0.01 95 1027.0
20181114055127 39 85 0.0 0.0 0.00 0.09 0.01 95 1027.0
20181114054617 39 84 0.0 0.0 0.00 0.09 0.01 95 1026.9
20181114054105 39 119 0.0 0.0 0.00 0.09 0.01 95 1026.9
20181114053555 40 119 0.0 0.0 0.00 0.09 0.01 95 1026.7
20181114053046 40 124 0.0 0.0 0.00 0.09 0.01 95 1026.6
20181114052536 39 316 0.0 0.0 0.00 0.09 0.01 95 1026.7
20181114052025 39 256 0.0 0.0 0.00 0.09 0.01 95 1026.6
20181114051515 39 256 0.0 0.0 0.00 0.09 0.01 95 1026.6
20181114051004 39 142 0.0 1.0 0.00 0.09 0.01 95 1026.7
20181114050453 39 224 0.0 1.0 0.00 0.10 0.01 95 1026.7
20181114045943 39 239 0.0 0.0 0.00 0.10 0.01 95 1026.7
20181114045434 39 127 0.0 0.0 0.00 0.10 0.01 95 1026.7
20181114044924 39 83 0.0 0.0 0.00 0.10 0.01 95 1026.7
20181114044413 39 117 0.0 0.0 0.00 0.10 0.01 95 1026.6
20181114043903 39 135 0.0 0.0 0.00 0.10 0.01 95 1026.6
20181114043354 39 135 0.0 0.0 0.00 0.10 0.01 95 1026.6
20181114042843 39 135 0.0 0.0 0.00 0.10 0.01 95 1026.5
20181114042333 39 77 0.0 0.0 0.00 0.10 0.01 95 1026.5
20181114041823 39 63 0.0 0.0 0.00 0.10 0.01 95 1026.6
20181114041311 39 63 0.0 0.0 0.00 0.10 0.01 95 1026.6
20181114040801 39 63 0.0 0.0 0.00 0.10 0.01 95 1026.7
20181114040251 39 63 0.0 0.0 0.00 0.10 0.01 95 1026.8
20181114035741 39 73 0.0 0.0 0.00 0.10 0.01 95 1026.8
20181114035223 39 73 0.0 1.0 0.00 0.10 0.01 95 1027.0
20181114034713 39 74 0.0 1.0 0.00 0.10 0.01 95 1027.0
20181114034203 39 73 0.0 1.0 0.00 0.10 0.01 95 1026.9
20181114033647 39 122 0.0 0.0 0.00 0.10 0.01 95 1026.9
20181114033136 39 138 0.0 0.0 0.00 0.10 0.01 95 1026.9
20181114032618 39 74 0.0 0.0 0.00 0.10 0.01 95 1026.7
20181114032107 39 49 0.0 0.0 0.00 0.10 0.01 95 1027.1
20181114031559 39 49 0.0 0.0 0.00 0.10 0.01 95 1027.3
20181114031047 39 49 0.0 0.0 0.00 0.10 0.01 95 1027.3
20181114030531 39 45 0.0 1.0 0.00 0.10 0.01 95 1027.2
20181114030018 39 78 0.0 1.0 0.00 0.10 0.01 95 1027.3
20181114025507 39 79 0.0 1.0 0.00 0.10 0.01 95 1027.4
20181114024957 39 31 0.0 1.0 0.00 0.10 0.01 95 1027.6
20181114024448 39 31 0.0 1.0 0.00 0.10 0.01 95 1027.6
20181114023937 39 43 0.0 1.0 0.00 0.10 0.01 95 1027.5
20181114023428 39 31 0.0 1.0 0.00 0.10 0.01 95 1027.6
20181114022917 39 32 0.0 1.0 0.00 0.10 0.01 95 1027.5
20181114022407 39 31 0.0 1.0 0.00 0.10 0.01 95 1027.6
20181114021857 39 32 0.0 1.0 0.00 0.10 0.01 95 1027.6
20181114021348 39 32 0.0 1.0 0.00 0.10 0.01 95 1027.7
20181114020838 39 32 0.0 1.0 0.00 0.10 0.01 95 1027.7
20181114020326 39 33 0.0 0.0 0.00 0.10 0.01 95 1027.7
20181114015808 39 33 0.0 1.0 0.00 0.10 0.01 95 1027.8
20181114015259 39 96 0.0 1.0 0.00 0.10 0.01 95 1027.9
20181114014750 39 77 0.0 0.0 0.00 0.10 0.01 95 1028.0
20181114014253 39 76 0.0 0.0 0.00 0.10 0.01 95 1028.2
20181114013741 39 76 0.0 1.0 0.00 0.10 0.01 95 1028.3
20181114013221 39 77 0.0 1.0 0.00 0.10 0.01 95 1028.3
20181114012711 39 120 0.0 0.0 0.00 0.10 0.01 95 1028.4
20181114012152 39 132 0.0 0.0 0.00 0.10 0.01 95 1028.4
20181114011649 39 132 0.0 0.0 0.00 0.10 0.01 95 1028.4
20181114011139 39 133 0.0 0.0 0.00 0.10 0.01 95 1028.4
20181114010629 39 61 0.0 0.0 0.00 0.10 0.01 95 1028.4
20181114010119 39 61 0.0 0.0 0.01 0.10 0.01 95 1028.5
20181114005609 39 60 0.0 0.0 0.01 0.10 0.01 95 1028.7
20181114005100 39 60 0.0 0.0 0.01 0.10 0.01 95 1028.7
20181114004549 39 61 0.0 0.0 0.01 0.10 0.01 95 1028.6
20181114004040 39 61 0.0 0.0 0.01 0.10 0.01 95 1028.8
20181114003530 39 61 0.0 0.0 0.01 0.10 0.01 95 1028.8
20181114003020 39 60 0.0 1.0 0.01 0.10 0.01 95 1028.9
20181114002509 39 60 0.0 1.0 0.01 0.10 0.01 95 1028.9
20181114001959 39 341 0.0 0.0 0.01 0.10 0.01 95 1029.0
20181114001449 39 260 0.0 0.0 0.01 0.10 0.01 95 1029.1
20181114000939 39 260 0.0 0.0 0.01 0.10 0.01 95 1029.2
20181114000429 39 43 0.0 0.0 0.01 0.10 0.01 95 1029.3
20181113235918 39 43 0.0 0.0 0.00 0.09 0.00 95 1029.2
20181113235408 39 43 0.0 0.0 0.00 0.09 0.00 95 1029.2
20181113234859 39 43 0.0 0.0 0.00 0.09 0.00 95 1029.2
20181113234348 39 43 0.0 0.0 0.00 0.09 0.00 95 1029.3
20181113233838 39 43 0.0 0.0 0.00 0.09 0.00 95 1029.3
20181113233332 39 43 0.0 1.0 0.00 0.09 0.00 95 1029.4
20181113232822 39 43 0.0 1.0 0.00 0.09 0.00 95 1029.5
20181113232312 39 43 0.0 1.0 0.00 0.09 0.00 95 1029.5
20181113231802 39 76 0.0 1.0 0.00 0.09 0.00 95 1029.6
20181113231303 39 68 0.0 1.0 0.00 0.09 0.00 95 1029.5
20181113230753 39 68 0.0 1.0 0.00 0.09 0.00 95 1029.6
20181113230243 39 74 0.0 1.0 0.00 0.09 0.00 95 1029.7
20181113225734 39 110 0.0 1.0 0.00 0.09 0.00 95 1029.8
20181113225221 39 120 0.0 1.0 0.00 0.09 0.00 95 1029.9
20181113224721 39 122 0.0 0.0 0.00 0.09 0.00 95 1029.9
20181113224211 39 122 0.0 1.0 0.01 0.09 0.00 95 1030.0
20181113223702 39 122 0.0 1.0 0.01 0.09 0.00 95 1030.1
20181113223151 39 122 0.0 1.0 0.01 0.09 0.00 95 1030.1
20181113222641 39 51 0.0 1.0 0.01 0.09 0.00 95 1030.1
20181113222131 39 52 0.0 1.0 0.01 0.09 0.00 95 1030.3
20181113222123 39 86 0.0 1.0 0.01 0.09 0.00 95 1030.4
20181113221111 39 131 0.0 1.0 0.01 0.09 0.00 95 1030.4
20181113220601 39 103 0.0 1.0 0.01 0.09 0.00 95 1030.4
20181113220046 40 46 0.0 1.0 0.01 0.09 0.00 95 1030.5
20181113215535 40 46 0.0 1.0 0.01 0.09 0.14 95 1030.6
20181113215019 40 45 0.0 1.0 0.01 0.09 0.14 95 1030.7
20181113214508 40 46 0.0 1.0 0.01 0.09 0.14 95 1030.7
20181113213958 40 79 0.0 1.0 0.00 0.09 0.13 95 1031.0
20181113213445 40 49 0.0 1.0 0.00 0.09 0.13 95 1031.0
20181113212945 40 49 0.0 1.0 0.00 0.09 0.13 95 1031.2
20181113212433 40 49 0.0 1.0 0.00 0.09 0.13 95 1031.1